Change the Weather History Date:

Friday, November 1, 2013

  Actual Average Record
Temperature  
Mean Temperature 53 °F 44 °F  
Max Temperature 64 °F 53 °F 77 °F (1950)
Min Temperature 42 °F 35 °F 11 °F (1917)
Degree Days  
Heating Degree Days 12 21  
Month to date heating degree days 12 21  
Since 1 July heating degree days 743 809  
Cooling Degree Days 0 0  
Month to date cooling degree days 0 0  
Year to date cooling degree days 467 314  
Growing Degree Days 8 (Base 50)    
Moisture  
Dew Point 47 °F    
Average Humidity 67    
Maximum Humidity 93    
Minimum Humidity 40    
Precipitation  
Precipitation 0.46 in 0.12 in 1.50 in (1941)
Month to date precipitation 0.46 0.12  
Year to date precipitation 39.26 40.42  
Sea Level Pressure  
Sea Level Pressure 29.63 in    
Wind  
Wind Speed 16 mph (WSW)    
Max Wind Speed 33 mph    
Max Gust Speed 47 mph    
Visibility 8 miles    
Events Rain    
T = Trace of Precipitation, MM = Missing Value Source: NWS Daily Summary

Daily Weather History Graph

Daily Weather History Graph

Search for Another Location

Airport or City:

Trip Planner

Search our weather history database for the weather conditions in past years. The results will help you decide how hot, cold, wet, or windy it might be!

Date:

Astronomy

Nov. 01, 2013 Rise Set
Actual Time 7:32 AM EDT 5:56 PM EDT
Civil Twilight 7:04 AM EDT 6:25 PM EDT
Nautical Twilight 6:31 AM EDT 6:57 PM EDT
Astronomical Twilight 5:59 AM EDT 7:29 PM EDT
Moon 5:21 AM EDT (11/1) 4:49 PM EDT (11/1)
Length of Visible Light 11h 21m
Length of Day
10h 23m
Waning Crescent, 4% of the Moon is Illuminated
Nov 1
Waning Crescent
Nov 3
New
Nov 10
First Quarter
Nov 17
Full
Nov 25
Last Quarter

Hourly Weather History & Observations

Time (EDT) Temp. Windchill Dew Point Humidity Pressure Visibility Wind Dir Wind Speed Gust Speed Precip Events Conditions
12:14 AM 57.2 °F - 55.4 °F 94% 29.77 in 4.0 mi SSW 13.8 mph 25.3 mph 0.00 in Rain Light Rain
12:31 AM 57.2 °F - 55.4 °F 94% 29.75 in 4.0 mi SSW 16.1 mph 27.6 mph 0.00 in Rain Light Rain
12:53 AM 57.9 °F - 55.9 °F 93% 29.73 in 5.0 mi SSW 17.3 mph 26.5 mph 0.00 in Rain Light Rain
1:13 AM 57.2 °F - 55.4 °F 94% 29.73 in 6.0 mi SSW 17.3 mph 28.8 mph 0.00 in Rain Light Rain
1:53 AM 57.9 °F - 55.0 °F 90% 29.68 in 5.0 mi South 17.3 mph 28.8 mph 0.02 in Rain Light Rain
2:53 AM 57.9 °F - 55.9 °F 93% 29.67 in 5.0 mi SSW 19.6 mph 33.4 mph 0.11 in Rain Light Rain
8:53 AM 57.0 °F - 52.0 °F 83% 29.57 in 5.0 mi West 25.3 mph 42.6 mph 0.17 in Rain Light Rain
9:53 AM 55.9 °F - 51.1 °F 84% 29.57 in 10.0 mi WSW 17.3 mph 25.3 mph 0.03 in Rain Light Rain
10:53 AM 55.9 °F - 52.0 °F 87% 29.57 in 10.0 mi WSW 17.3 mph 31.1 mph 0.03 in   Overcast
11:53 AM 57.9 °F - 51.1 °F 78% 29.57 in 10.0 mi West 17.3 mph 25.3 mph 0.00 in   Scattered Clouds
12:12 PM 59.0 °F - 50.0 °F 72% 29.58 in 10.0 mi WSW 24.2 mph 31.1 mph N/A   Mostly Cloudy
12:25 PM 59.0 °F - 48.2 °F 67% 29.57 in 10.0 mi West 20.7 mph 28.8 mph N/A   Scattered Clouds
12:53 PM 61.0 °F - 48.0 °F 62% 29.56 in 10.0 mi West 21.9 mph 31.1 mph N/A   Mostly Cloudy
1:53 PM 62.1 °F - 44.1 °F 52% 29.56 in 10.0 mi West 24.2 mph 35.7 mph N/A   Scattered Clouds
2:53 PM 63.0 °F - 43.0 °F 48% 29.56 in 10.0 mi West 23.0 mph 36.8 mph N/A   Scattered Clouds
3:53 PM 64.0 °F - 41.0 °F 43% 29.57 in 10.0 mi West 17.3 mph 28.8 mph N/A   Clear
4:53 PM 64.0 °F - 39.0 °F 40% 29.57 in 10.0 mi West 16.1 mph 24.2 mph N/A   Clear
5:53 PM 61.0 °F - 37.9 °F 42% 29.59 in 10.0 mi West 10.4 mph 20.7 mph N/A   Clear
6:53 PM 57.9 °F - 37.9 °F 47% 29.63 in 10.0 mi West 8.1 mph - N/A   Clear
7:53 PM 55.9 °F - 37.9 °F 51% 29.65 in 10.0 mi West 9.2 mph - N/A   Clear
8:53 PM 54.0 °F - 37.9 °F 55% 29.68 in 10.0 mi WNW 9.2 mph - N/A   Clear
9:53 PM 53.1 °F - 37.9 °F 57% 29.69 in 10.0 mi WNW 6.9 mph - N/A   Clear
10:53 PM 51.1 °F - 37.9 °F 61% 29.70 in 10.0 mi WNW 5.8 mph - N/A   Clear
11:53 PM 46.0 °F 44.8 °F 37.9 °F 73% 29.71 in 10.0 mi NNW 3.5 mph - N/A   Mostly Cloudy